Date,TemperatureHighF,TemperatureAvgF,TemperatureLowF,DewpointHighF,DewpointAvgF,DewpointLowF,HumidityHigh,HumidityAvg,HumidityLow,PressureMaxIn,PressureMinIn,WindSpeedMaxMPH,WindSpeedAvgMPH,GustSpeedMaxMPH,PrecipitationSumIn
2013-2-15,73,70,67,68,66,64,96,89,79,30.02,29.97,10,4,11,7.03
2013-2-16,69,67,64,64,63,63,97,89,83,29.94,29.88,11,4,11,0.00
2013-2-17,55,49,45,38,27,21,65,43,27,30.28,30.12,24,13,24,0.00
2013-2-18,64,48,47,48,36,35,64,62,56,30.31,30.27,10,6,10,0.00
2013-2-19,77,72,68,67,66,64,92,80,68,30.12,30.08,17,6,17,0.00
2013-2-20,81,70,62,68,65,60,98,83,54,30.12,30.01,15,3,15,0.00
2013-2-21,81,73,64,70,66,63,97,81,62,30.09,29.99,14,4,14,0.00
2013-2-22,82,76,70,72,70,66,90,82,71,30.10,30.01,20,7,20,0.00
2013-2-23,83,76,71,73,70,68,95,83,69,30.04,29.91,19,6,19,0.37
2013-2-24,89,77,71,74,71,66,98,84,52,30.00,29.89,17,4,17,0.00
2013-2-25,84,76,69,74,71,68,96,86,66,29.92,29.81,18,4,19,0.03
2013-2-26,82,77,74,73,72,70,93,83,70,29.90,29.80,28,6,28,0.00
2013-2-27,77,70,64,74,66,62,96,87,65,29.97,29.86,16,3,16,0.66
2013-2-28,71,64,60,64,56,50,96,75,50,30.01,29.91,19,4,20,0.00
2013-3-1,66,62,58,59,53,49,85,72,59,29.99,29.90,13,4,13,0.00
2013-3-2,67,59,51,51,44,36,81,59,40,30.04,29.96,29,7,29,0.00
2013-3-3,63,55,50,48,44,40,87,67,47,30.15,29.96,21,6,22,0.00
2013-3-4,70,55,42,47,38,30,88,57,24,30.22,30.12,20,5,20,0.00
2013-3-5,70,54,49,57,49,46,93,84,59,30.19,30.13,8,1,8,0.00
2013-3-7,74,65,56,56,50,43,92,61,35,30.19,30.10,11,3,12,0.00
2013-3-8,78,63,51,55,51,42,93,69,29,30.20,30.10,13,3,13,0.00
2013-3-9,76,65,53,58,54,51,92,70,50,30.19,30.10,21,4,21,0.00
2013-3-10,73,67,65,56,55,53,70,64,55,30.16,30.07,17,4,17,0.00
2013-3-13,69,68,67,58,58,57,70,69,68,30.11,30.10,15,9,15,0.00
2013-3-14,72,65,56,50,45,38,79,51,31,30.20,30.12,21,9,23,0.00
2013-3-15,66,56,52,51,48,45,81,74,55,30.25,30.17,12,6,12,0.00
2013-3-18,80,74,67,70,68,66,96,82,67,30.07,29.96,20,6,21,0.25
2013-3-19,81,73,68,70,68,65,96,85,65,30.01,29.82,24,3,28,0.00
2013-3-20,86,73,64,70,65,57,98,78,48,29.98,29.81,19,3,22,0.00
2013-3-21,70,64,62,62,59,46,94,84,44,29.95,29.83,19,6,19,0.00
2013-3-23,87,81,76,74,72,68,90,74,56,29.95,29.80,18,6,19,0.00
2013-3-24,88,79,72,74,72,67,96,80,55,29.89,29.68,31,9,36,0.00
2013-3-25,80,74,64,73,61,44,95,68,37,29.99,29.74,20,5,20,0.00
2013-3-26,64,59,56,45,41,36,60,52,39,30.12,29.99,27,9,27,0.00
2013-3-28,75,67,57,52,45,36,72,46,27,30.27,30.17,17,5,19,0.00
2013-3-29,75,65,55,54,51,45,81,61,40,30.29,30.20,18,5,19,0.00
2013-3-30,72,62,56,58,54,51,91,77,48,30.27,30.20,15,2,15,0.00
2013-4-2,86,79,74,68,66,64,81,66,49,30.08,30.01,14,5,14,0.00
2013-4-3,83,77,68,70,68,66,94,76,62,30.07,29.99,20,6,21,0.00
2013-4-4,84,75,69,74,70,67,96,85,70,30.05,29.90,31,6,31,0.69
2013-4-5,72,69,66,70,67,65,96,92,86,30.00,29.84,17,6,18,0.21
2013-4-7,79,74,70,65,63,62,77,67,60,30.14,30.08,19,6,19,0.00
2013-4-8,81,72,61,65,62,56,96,72,48,30.14,30.05,16,4,17,0.00
2013-4-9,81,75,68,69,67,63,89,76,59,30.15,30.05,19,6,22,0.00
2013-4-10,81,74,72,73,68,66,84,81,77,30.11,30.04,21,4,21,0.00
2013-4-13,85,76,72,76,72,68,94,87,73,29.97,29.88,14,3,14,0.09
2013-4-14,85,79,72,76,74,70,98,85,68,29.97,29.89,20,6,20,0.00
2013-4-15,84,74,70,76,72,68,97,93,74,30.06,29.93,21,2,21,0.86
2013-4-16,86,78,71,76,73,70,98,86,68,30.12,30.02,20,5,20,0.03
2013-4-17,84,78,72,71,69,66,91,76,60,30.11,30.02,18,5,18,0.00
2013-4-18,85,79,74,74,71,68,86,77,64,30.06,29.98,16,6,18,0.00
2013-4-19,86,81,77,74,73,69,89,76,60,30.05,29.96,24,8,24,0.00
2013-4-20,91,80,72,76,73,70,97,81,53,30.04,29.96,23,4,24,0.02
2013-4-21,84,80,74,74,72,70,88,79,68,30.10,29.98,19,6,19,0.00
2013-4-22,76,73,72,72,71,69,95,91,84,30.04,29.98,14,4,14,0.01
2013-4-24,83,79,74,66,65,62,72,63,53,30.14,30.06,17,6,17,0.00
2013-4-25,83,76,70,66,63,60,78,65,49,30.20,30.08,18,4,18,0.00
2013-4-26,84,75,66,68,65,62,90,71,53,30.22,30.12,21,5,22,0.00
2013-4-27,80,74,70,66,64,62,78,70,59,30.21,30.12,23,5,23,0.00
2013-4-30,83,76,70,72,70,67,95,82,63,29.99,29.94,22,4,22,0.38
2013-5-1,84,75,70,74,71,69,97,88,65,30.00,29.92,17,3,17,0.31
2013-5-2,79,72,68,73,70,66,98,94,82,29.95,29.79,24,5,25,3.69
2013-5-3,89,75,68,71,70,67,98,85,53,29.82,29.71,15,4,15,0.06
2013-6-13,89,82,75,78,74,72,91,79,64,30.06,29.94,18,3,18,0.29
2013-6-14,94,81,74,77,73,69,97,79,48,29.97,29.88,18,3,19,0.05
2013-6-15,94,83,74,77,74,70,97,78,49,30.06,29.93,13,3,13,0.01
2013-6-16,90,83,75,78,76,72,97,80,59,30.10,30.01,16,4,16,0.00
2013-6-17,90,84,77,77,76,74,95,78,62,30.08,30.01,17,4,17,0.00
2013-6-18,91,84,77,77,76,72,95,78,59,30.07,29.98,16,5,17,0.00
2013-6-19,91,84,77,78,76,73,95,78,59,30.05,29.98,19,4,19,0.00
2013-6-20,92,82,75,77,73,68,92,77,55,30.09,30.02,18,4,20,0.00
2013-6-21,90,83,76,76,74,68,94,75,52,30.12,30.03,16,4,16,0.00
2013-6-22,90,84,76,75,74,71,92,73,57,30.10,30.04,17,5,19,0.00
2013-6-23,89,83,78,76,74,70,92,76,60,30.13,30.05,19,6,21,0.06
2013-6-24,87,82,78,75,74,72,85,77,67,30.16,30.09,16,5,16,0.00
2013-6-26,89,85,81,76,75,72,83,73,58,30.08,30.02,19,6,19,0.34
2013-6-27,88,82,77,78,75,72,94,82,68,30.06,29.96,15,2,15,0.00
2013-6-28,90,81,73,78,75,70,97,82,61,30.00,29.86,22,4,22,0.18
2013-6-29,86,78,75,77,75,73,97,92,73,29.94,29.87,10,2,10,0.01
2013-6-30,78,77,74,77,75,71,95,94,91,29.95,29.88,17,2,14,0.93
2013-7-1,88,81,77,78,76,70,95,84,67,30.04,29.92,22,5,24,0.00
2013-7-2,89,83,77,79,77,72,94,83,69,30.12,29.98,19,5,19,0.00
2013-7-3,88,82,77,79,76,73,95,83,69,30.13,30.04,24,7,26,0.19
2013-7-4,88,83,76,77,75,71,95,78,66,30.17,30.07,24,8,25,0.00
2013-7-5,86,80,74,78,76,71,96,86,75,30.14,30.05,24,6,29,1.85
2013-7-6,87,83,80,76,75,74,85,78,67,30.12,30.04,23,8,23,0.00
2013-7-13,76,74,73,75,73,71,97,95,92,30.04,29.97,17,3,19,1.35
2013-7-14,88,78,73,76,73,71,96,86,61,30.09,29.99,19,4,19,0.09
2013-7-15,88,80,73,77,74,71,97,82,61,30.10,30.01,17,4,18,0.18
2013-7-16,84,78,73,75,72,70,95,82,65,30.15,30.04,33,6,36,0.30
2013-7-17,82,77,73,75,73,71,95,88,79,30.15,30.04,15,3,15,0.39
2013-7-18,85,77,73,77,74,70,97,90,75,30.13,30.06,24,4,24,0.62
2013-7-19,87,81,74,79,76,73,98,86,67,30.13,30.05,19,5,19,0.24
2013-7-20,85,81,80,79,78,76,93,90,81,30.12,30.04,15,3,15,0.00
2013-7-22,90,86,80,76,75,72,86,71,59,30.15,30.06,16,6,16,0.00
2013-7-23,96,84,77,78,75,69,95,77,46,30.11,29.97,14,4,15,0.00
2013-7-24,94,84,77,77,74,70,94,74,51,30.03,29.91,17,4,17,0.00
2013-7-25,87,79,76,77,75,72,95,87,68,30.00,29.91,15,2,15,0.00
2013-7-27,79,78,75,76,75,73,96,93,88,30.00,29.92,8,1,8,1.75
2013-7-28,88,79,72,79,76,70,96,89,74,30.08,29.94,12,2,14,1.47
2013-7-29,90,82,76,79,76,74,97,84,65,30.13,30.02,15,3,17,0.00
2013-7-30,90,84,75,80,77,73,95,81,67,30.15,30.06,22,4,22,0.79
2013-7-31,89,83,78,78,77,74,95,83,63,30.11,30.03,18,4,18,0.00
2013-8-1,89,85,80,76,74,72,83,72,62,30.02,29.94,17,7,19,0.00
2013-8-2,91,82,76,78,74,70,94,79,58,30.05,29.91,14,3,14,0.00
2013-8-3,89,79,72,79,75,69,95,88,70,30.16,30.02,21,2,21,0.32
2013-8-4,94,82,76,79,76,73,97,83,58,30.10,29.97,23,2,24,0.00
2013-8-5,92,80,76,80,76,73,96,88,65,30.03,29.93,11,2,14,0.11
2013-8-6,80,77,76,78,76,74,98,96,93,29.98,29.90,6,0,6,0.00
2013-8-7,88,85,83,77,76,74,82,74,65,29.98,29.91,16,6,18,0.00
2013-8-8,90,85,82,78,76,73,85,75,59,30.01,29.92,23,7,23,0.01
2013-8-9,89,83,78,78,75,71,86,77,66,30.06,29.95,23,6,23,0.16
2013-8-10,91,84,79,78,76,73,88,77,59,30.11,30.03,19,6,19,0.00
2013-8-11,91,85,81,78,76,75,85,76,64,30.13,30.06,16,5,16,0.00
2013-8-12,88,81,77,78,75,73,93,84,64,30.11,30.05,13,2,13,0.00
2013-8-14,91,87,82,76,75,72,82,68,57,30.02,29.92,18,6,18,0.00
2013-8-15,88,82,76,78,76,73,94,84,71,30.05,29.95,21,3,21,0.06
2013-8-16,92,85,79,80,77,74,92,80,60,30.04,29.97,15,4,15,0.00
2013-8-17,90,85,82,79,78,74,88,79,65,30.07,29.99,22,5,22,0.00
2013-8-18,90,85,81,79,77,75,87,78,66,30.07,29.99,22,7,23,0.00
2013-8-19,91,85,81,78,77,75,88,78,62,30.07,29.96,20,6,20,0.00
2013-8-20,91,84,78,78,76,72,92,77,59,30.06,29.97,22,5,22,0.00
2013-8-21,89,83,79,80,78,75,94,83,71,30.07,29.99,25,7,25,0.13
2013-8-22,88,82,77,79,77,73,92,85,73,30.06,29.99,17,4,17,0.00
2013-8-24,92,86,76,78,75,71,93,72,58,30.11,30.01,17,6,17,0.15
2013-8-25,88,81,77,77,75,72,95,83,66,30.14,30.02,14,3,14,0.00
2013-8-26,89,80,71,79,74,68,96,83,61,30.11,30.00,22,3,22,0.67
2013-8-27,85,76,74,77,74,72,97,94,77,30.05,29.98,13,2,13,0.01
2013-8-30,92,87,83,76,74,71,79,67,52,30.00,29.89,19,5,20,0.00
2013-8-31,90,81,75,79,75,72,94,83,61,29.97,29.90,15,3,15,0.09
2013-9-1,86,77,75,80,75,73,97,94,75,29.98,29.92,5,0,5,0.00
2013-9-2,78,77,76,74,74,72,91,90,88,30.05,30.01,25,-187,25,0.28
2013-9-7,85,77,75,76,74,70,94,90,69,29.96,29.89,13,2,16,0.15
2013-9-8,88,79,74,80,75,72,96,87,68,29.94,29.85,17,2,17,0.03
2013-9-9,90,82,74,79,75,71,97,81,60,29.99,29.89,18,4,18,0.15
2013-9-10,89,82,77,78,75,73,93,80,66,30.03,29.94,22,5,22,0.00
2013-9-11,83,79,74,78,75,72,96,87,79,30.06,29.96,15,3,24,0.89
2013-9-12,86,80,77,78,76,73,95,87,72,30.01,29.88,9,2,10,0.00
2013-9-13,94,82,75,79,76,73,97,81,54,29.90,29.79,14,2,14,0.19
2013-9-14,93,83,76,79,75,71,96,78,52,29.97,29.81,15,3,15,0.00
2013-9-15,87,81,77,79,76,71,94,85,74,30.04,29.91,23,3,24,0.06
2013-9-16,86,80,73,79,76,70,95,88,73,30.04,29.95,27,4,28,0.71
2013-9-17,81,79,76,77,75,73,95,88,83,30.03,29.91,16,4,16,0.34
2013-9-18,80,78,76,76,75,74,94,91,84,30.00,29.91,11,2,11,0.00
2013-9-20,88,83,78,74,72,68,84,69,54,29.99,29.89,18,6,18,0.00
2013-9-21,88,80,73,76,73,71,95,79,63,29.91,29.77,13,3,13,0.00
2013-9-22,91,83,76,78,75,71,95,78,54,29.86,29.75,15,3,15,0.00
2013-9-23,86,80,78,79,77,76,96,91,77,29.93,29.85,9,1,10,0.00
2013-9-27,86,83,80,76,76,74,88,78,70,29.88,29.87,11,5,11,0.00
2013-9-30,89,84,80,74,72,70,80,68,57,29.99,29.90,16,4,16,0.00
2013-10-1,88,82,76,76,73,71,91,74,61,30.03,29.94,20,5,20,0.00
2013-10-2,88,82,79,75,73,72,83,74,62,30.04,29.96,21,5,22,0.00
2013-10-3,84,80,79,76,74,74,85,82,74,30.04,29.94,14,3,14,0.00
2013-10-5,89,84,79,74,72,70,84,68,56,30.01,29.92,17,5,17,0.00
2013-10-6,89,81,74,78,73,69,96,80,54,29.96,29.86,19,2,19,0.02
2013-10-7,90,79,74,76,73,69,96,84,51,29.89,29.80,34,4,36,0.74
2013-10-8,92,82,76,79,75,71,98,80,59,29.92,29.84,14,4,16,0.00
2013-10-9,87,78,73,77,74,71,95,86,71,29.98,29.89,16,5,18,0.00
2013-10-10,88,80,71,75,72,69,96,79,60,30.00,29.93,18,5,18,0.00
2013-10-11,88,78,70,73,69,67,96,75,54,30.00,29.93,16,3,16,0.00
2013-10-12,87,74,69,72,69,67,96,86,55,30.02,29.94,7,1,7,0.00
2013-10-14,88,82,73,71,70,68,91,68,55,29.99,29.90,14,3,14,0.00
2013-10-15,87,78,71,73,71,68,95,80,59,29.95,29.86,14,3,14,0.00
2013-10-16,88,78,72,74,71,69,95,79,55,29.94,29.88,13,2,13,0.00
2013-10-17,89,79,71,75,71,69,96,78,58,29.96,29.88,14,2,14,0.00
2013-10-18,87,79,72,75,72,70,95,80,64,29.96,29.89,16,3,16,0.00
2013-10-19,90,81,74,76,73,71,95,77,59,29.96,29.87,15,4,15,0.00
2013-10-20,91,82,76,79,76,73,95,82,57,29.95,29.86,15,2,15,0.00
2013-10-21,87,79,76,78,75,74,95,88,72,29.99,29.92,10,1,10,0.00
2013-10-23,90,82,78,76,72,69,77,71,61,29.95,29.81,13,6,18,0.00
2013-10-24,81,76,72,70,66,63,82,70,62,30.09,29.92,16,6,16,0.00
2013-10-25,83,76,68,67,65,63,86,70,53,30.14,30.06,22,6,22,0.00
2013-10-26,76,69,67,67,65,63,88,85,72,30.14,30.06,7,2,7,0.00
2013-10-29,86,81,78,71,68,65,71,65,59,30.17,30.09,21,8,21,0.00
2013-10-30,86,79,74,70,68,66,78,68,57,30.18,30.07,22,6,22,0.00
2013-10-31,85,80,76,73,71,66,84,74,64,30.11,29.99,19,6,21,0.00
2013-11-1,87,80,74,75,73,71,90,79,64,30.00,29.87,17,4,17,0.00
2013-11-2,90,79,72,74,71,63,96,78,47,29.93,29.79,17,4,17,0.00
2013-11-3,82,74,68,66,63,61,85,69,56,30.02,29.88,25,9,25,0.00
2013-11-4,81,76,73,70,64,59,81,67,52,30.07,30.00,29,9,29,0.03
2013-11-5,82,79,77,72,69,66,78,72,64,30.09,30.01,31,11,31,0.00
2013-11-6,82,78,77,70,70,69,77,75,67,30.06,29.99,23,9,24,0.00
2013-11-8,84,79,74,73,72,69,95,80,63,30.03,29.96,24,9,24,0.35
2013-11-9,78,76,73,73,72,70,95,86,80,30.10,30.00,25,9,26,0.41
2013-11-10,84,78,76,73,71,69,85,78,69,30.11,30.04,18,5,18,0.00
2013-11-11,84,77,70,73,69,67,93,77,67,30.11,30.04,20,4,20,0.00
2013-11-12,84,77,70,72,68,66,94,76,58,30.07,29.96,14,4,14,0.00
2013-11-13,76,72,69,68,64,56,86,75,62,30.20,29.98,29,11,29,0.00
2013-11-14,78,73,69,62,59,55,69,62,54,30.23,30.13,25,9,25,0.00
2013-11-15,81,77,73,70,67,62,75,72,65,30.14,30.02,22,8,22,0.00
2013-11-16,80,77,72,73,70,64,92,80,70,30.09,30.01,16,5,17,0.23
2013-11-17,84,78,73,74,71,69,92,79,68,30.07,29.99,18,5,19,0.00
2013-11-18,81,74,72,77,72,70,97,94,83,30.02,29.97,9,0,9,0.01
2013-11-19,80,74,73,74,72,71,96,93,79,29.93,29.84,16,3,16,0.05
2013-11-20,87,77,70,75,72,69,97,86,63,30.05,29.91,13,2,13,0.01
2013-11-21,81,76,72,75,72,70,97,89,78,30.13,30.03,21,4,21,1.09
2013-11-22,82,78,75,73,71,68,85,79,69,30.15,30.06,24,7,24,0.00
2013-11-23,82,77,72,72,70,68,89,81,70,30.07,29.96,17,4,17,0.00
2013-11-24,82,74,68,71,68,64,96,83,63,30.14,29.98,26,6,26,0.03
2013-11-25,75,73,70,69,65,60,86,76,67,30.19,30.05,27,11,27,0.01
2013-11-26,83,78,72,75,73,69,94,86,74,30.04,29.81,25,9,26,0.16
2013-11-27,79,72,58,75,66,52,97,82,56,30.11,29.77,28,8,28,0.56
2013-11-28,74,63,48,60,54,45,90,73,53,30.24,30.11,22,7,22,0.00
2013-11-29,78,69,59,64,60,56,92,74,53,30.26,30.18,24,6,24,0.00
2013-11-30,77,70,62,70,63,60,95,81,65,30.20,30.09,27,6,27,0.14
2013-12-1,70,64,62,69,62,60,96,94,86,30.10,30.03,6,1,6,0.00
2013-12-3,79,74,70,67,64,59,88,72,58,29.99,29.91,10,2,10,0.00
2013-12-4,81,74,66,70,66,64,94,80,60,30.09,29.98,13,2,13,0.00
2013-12-5,82,74,66,72,69,64,97,84,68,30.16,30.07,14,4,16,0.00
2013-12-6,80,76,75,71,70,69,85,82,73,30.18,30.08,18,5,18,0.00
2013-12-9,84,78,70,70,68,64,92,72,53,30.19,30.10,20,5,20,0.00
2013-12-10,84,77,71,73,71,68,94,83,67,30.16,30.07,13,2,13,0.00
2013-12-11,79,71,70,75,70,68,98,96,88,30.19,30.11,10,2,10,0.00
2013-12-14,82,78,73,73,71,70,92,81,70,30.10,29.98,20,6,21,0.01
2013-12-15,83,76,70,76,72,67,96,88,75,30.05,29.92,19,4,19,0.00
2013-12-16,76,68,61,67,62,59,91,81,66,30.15,30.03,15,6,15,0.00
2013-12-17,70,60,59,64,58,57,95,93,82,30.17,30.10,10,5,11,0.00
2013-12-19,78,74,71,64,62,60,71,64,56,30.23,30.14,19,6,19,0.00
2013-12-20,80,76,70,70,67,62,80,75,68,30.18,30.10,18,6,19,0.00
2013-12-21,83,78,76,73,72,69,85,80,69,30.14,30.05,22,8,22,0.00
2013-12-22,81,78,77,72,72,71,85,83,77,30.15,30.06,21,9,21,0.00
2013-12-25,77,74,72,68,66,65,86,77,69,30.17,30.09,22,8,22,0.00
2013-12-26,78,75,73,71,69,67,86,82,76,30.16,30.06,15,5,16,0.00
2013-12-27,79,73,71,72,70,68,94,90,76,30.17,30.08,19,2,19,0.02
2013-12-30,80,73,68,71,69,65,98,86,73,30.14,30.04,12,4,12,0.01
2013-12-31,79,72,68,68,65,63,89,77,63,30.22,30.10,22,8,22,0.00
2014-1-1,81,76,73,73,70,64,93,83,72,30.18,30.03,18,6,18,0.00
2014-1-2,80,72,69,72,70,68,97,93,75,30.03,29.98,14,1,14,0.00